Overview Statistics Trail Chart Weather Telemetry Raw packets
 

This is the latest recevied weather packets stored in our database for station/object N0QWM. If no packets are shown the sender has not sent any weather packets the latest 10 day(s).

<< 3 4 5 6 7 8 9 >>
Time Temp. Humidity Pressure Rain* Wind** Luminosity Snow
1788634081 36.11° C 61% 1017.6 hPa 0 mm - 256 W/m² -
1788633780 36.11° C 59% 1018 hPa 0 mm - 668 W/m² -
1788633479 37.22° C 50% 1017.8 hPa 0 mm - 661 W/m² -
1788633174 36.67° C 52% 1017.8 hPa 0 mm - 603 W/m² -
1788632873 36.67° C 51% 1017.8 hPa 0 mm - 620 W/m² -
1788632568 35.56° C 52% 1018 hPa 0 mm - 165 W/m² -
1788632263 36.11° C 52% 1018 hPa 0 mm - 161 W/m² -
1788631963 36.67° C 50% 1018.1 hPa 0 mm - 621 W/m² -
1788631658 37.22° C 49% 1018.1 hPa 0 mm - 687 W/m² -
1788631353 36.67° C 52% 1018.2 hPa 0 mm - 671 W/m² -
1788631052 36.11° C 52% 1018.3 hPa 0 mm - 693 W/m² -
1788630747 36.67° C 51% 1018.3 hPa 0 mm - 127 W/m² -
1788630442 35.56° C 52% 1018.5 hPa 0 mm - 661 W/m² -
1788630138 35.56° C 53% 1018.7 hPa 0 mm - 168 W/m² -
1788629834 36.11° C 52% 1018.7 hPa 0 mm - 663 W/m² -
1788629558 36.11° C 51% 1019 hPa 0 mm - 722 W/m² -
1788629229 35° C 55% 1019.1 hPa 0 mm - 670 W/m² -
1788628923 35° C 52% 1019.1 hPa 0 mm - 328 W/m² -
1788628619 35° C 54% 1018.9 hPa 0 mm - 364 W/m² -
1788628315 35° C 54% 1019.2 hPa 0 mm - 240 W/m² -
1788628012 35° C 56% 1019 hPa 0 mm - 134 W/m² -
1788627707 35.56° C 54% 1019.2 hPa 0 mm - 333 W/m² -
1788627406 35.56° C 52% 1019.3 hPa 0 mm - 448 W/m² -
1788627102 36.11° C 52% 1019.6 hPa 0 mm - 220 W/m² -
1788626797 36.11° C 55% 1019.4 hPa 0 mm - 634 W/m² -

* Rain latest hour (hover to see other rain measurements)
** Current wind speed in m/s (hover to see current wind gust speed)